QPF
0.00 0.00 0.00 0.00 0.00 0.00 0.00 0.00 0.00 0.00 0.00 0.00 0.00 0.00 0.00 0.00 0.00 0.00 0.00 0.02 0.07 0.00 0.05 0.00 0.02 0.01 0.01 0.02 0.01 0.16 0.04 0.01 0.03 0.01 0.01 0.00 0.02 0.00 0.00 0.01 0.00 0.00 0.00 0.00 0.00 0.00 0.00 0.00 0.00 0.00 0.00 0.00 0.00 0.00 0.00 0.00 0.00 0.00 0.00 0.00 0.00 0.00 0.00
0.00 0.00 0.00 0.00 0.00 0.00 0.00 0.00 0.00 0.00 0.00 0.00 0.00 0.00 0.00 0.00 0.00 0.01 0.00 0.00 0.00 0.01 0.08 0.02 0.00 0.00 0.01 0.01 0.06 0.01 0.13 0.01 0.01 0.01 0.01 0.01 0.00 0.00 0.00 0.00 0.01 0.00 0.00 0.00 0.00 0.00 0.00 0.00 0.00 0.00 0.00 0.00 0.01 0.00 0.00 0.00 0.00 0.00 0.00 0.00 0.00 0.01 0.00
0.00 0.00 0.00 0.00 0.00 0.00 0.00 0.00 0.00 0.00 0.00 0.00 0.00 0.00 0.00 0.00 0.00 0.00 0.00 0.00 0.02 0.01 0.07 0.01 0.02 0.01 0.00 0.01 0.00 0.07 0.19 0.18 0.01 0.01 0.01 0.01 0.01 0.00 0.00 0.00 0.01 0.02 0.00 0.00 0.00 0.00 0.00 0.00 0.01 0.00 0.00 0.00 0.00 0.00 0.00 0.00 0.00 0.01 0.00 0.00 0.00 0.00 0.00
0.00 0.00 0.00 0.00 0.00 0.00 0.00 0.00 0.00 0.00 0.00 0.00 0.00 0.00 0.00 0.00 0.00 0.00 0.00 0.00 0.03 0.01 0.07 0.03 0.03 0.01 0.00 0.06 0.01 0.04 0.22 0.42 0.00 0.01 0.01 0.02 0.01 0.00 0.00 0.00 0.00 0.01 0.02 0.01 0.00 0.00 0.00 0.00 0.00 0.00 0.00 0.01 0.00 0.00 0.01 0.00 0.00 0.00 0.00 0.00 0.00 0.00 0.00
0.00 0.00 0.00 0.00 0.00 0.00 0.00 0.00 0.00 0.00 0.00 0.00 0.00 0.00 0.00 0.00 0.01 0.00 0.00 0.03 0.08 0.06 0.07 0.09 0.07 0.08 0.06 0.10 0.17 0.06 0.24 0.12 0.03 0.00 0.00 0.02 0.01 0.02 0.00 0.00 0.00 0.00 0.00 0.01 0.01 0.00 0.00 0.00 0.00 0.01 0.01 0.00 0.00 0.00 0.00 0.00 0.00 0.00 0.00 0.00 0.00 0.00 0.00
0.00 0.00 0.00 0.00 0.00 0.00 0.00 0.00 0.00 0.00 0.00 0.00 0.00 0.00 0.00 0.00 0.00 0.00 0.00 0.01 0.04 0.08 0.01 0.24 0.28 0.05 0.16 0.39 0.03 0.22 0.10 0.05 0.02 0.01 0.00 0.00 0.01 0.00 0.00 0.00 0.00 0.00 0.00 0.00 0.00 0.00 0.00 0.00 0.00 0.00 0.00 0.00 0.06 0.00 0.00 0.00 0.00 0.00 0.00 0.00 0.00 0.00 0.00
0.00 0.00 0.00 0.00 0.00 0.00 0.00 0.00 0.00 0.00 0.00 0.00 0.00 0.00 0.00 0.00 0.00 0.00 0.00 0.00 0.09 0.06 0.19 0.06 0.10 0.06 0.06 0.06 0.09 0.07 0.25 0.02 0.01 0.02 0.04 0.00 0.01 0.00 0.00 0.00 0.00 0.00 0.00 0.00 0.00 0.00 0.00 0.00 0.00 0.00 0.02 0.10 0.11 0.05 0.07 0.02 0.01 0.00 0.00 0.00 0.00 0.00 0.00
0.00 0.01 0.00 0.00 0.00 0.00 0.00 0.00 0.00 0.00 0.00 0.00 0.00 0.00 0.00 0.00 0.00 0.00 0.00 0.00 0.08 0.10 0.10 0.27 0.03 0.07 0.14 0.08 0.10 0.01 0.15 0.11 0.00 0.00 0.01 0.00 0.02 0.02 0.04 0.09 0.04 0.01 0.00 0.00 0.00 0.00 0.00 0.00 0.01 0.01 0.02 0.11 0.08 0.16 0.16 0.04 0.03 0.01 0.00 0.00 0.00 0.00 0.00
0.02 0.00 0.00 0.00 0.00 0.00 0.00 0.00 0.00 0.00 0.00 0.00 0.00 0.00 0.00 0.00 0.00 0.00 0.00 0.00 0.12 0.14 0.04 0.08 0.23 0.23 0.08 0.20 0.14 0.05 0.17 0.07 0.01 0.00 0.01 0.02 0.00 0.02 0.10 0.18 0.29 0.16 0.06 0.02 0.02 0.01 0.00 0.01 0.02 0.13 0.14 0.04 0.09 0.09 0.07 0.16 0.06 0.07 0.00 0.00 0.00 0.01 0.01
0.04 0.09 0.00 0.00 0.00 0.00 0.00 0.00 0.00 0.00 0.00 0.00 0.00 0.00 0.00 0.00 0.00 0.00 0.00 0.05 0.09 0.14 0.08 0.09 0.11 0.09 0.07 0.13 0.25 0.23 0.25 0.13 0.05 0.03 0.01 0.01 0.11 0.09 0.02 0.11 0.43 0.91 0.70 0.08 0.06 0.08 0.02 0.00 0.00 0.00 0.00 0.00 0.00 0.08 0.06 0.06 0.01 0.05 0.11 0.00 0.00 0.01 0.02
0.00 0.00 0.01 0.00 0.00 0.00 0.00 0.00 0.00 0.00 0.00 0.00 0.00 0.00 0.00 0.00 0.00 0.00 0.01 0.01 0.01 0.05 0.01 0.01 0.04 0.12 0.17 0.14 0.37 0.16 0.20 0.24 0.12 0.10 0.14 0.02 0.05 0.08 0.01 0.01 0.02 0.14 0.26 0.47 0.49 0.12 0.03 0.01 0.00 0.00 0.00 0.00 0.06 0.06 0.07 0.11 0.08 0.10 0.06 0.01 0.00 0.00 0.03
0.00 0.00 0.00 0.00 0.00 0.00 0.00 0.00 0.00 0.00 0.00 0.00 0.00 0.00 0.00 0.00 0.00 0.00 0.02 0.01 0.05 0.04 0.04 0.04 0.02 0.03 0.03 0.12 0.27 0.11 0.11 0.17 0.19 0.19 0.18 0.04 0.04 0.16 0.12 0.15 0.06 0.08 0.16 0.26 0.25 0.21 0.01 0.00 0.00 0.00 0.00 0.00 0.01 0.08 0.11 0.23 0.14 0.12 0.07 0.00 0.00 0.00 0.00
0.00 0.00 0.00 0.00 0.00 0.00 0.00 0.00 0.00 0.00 0.00 0.00 0.00 0.00 0.00 0.00 0.00 0.01 0.01 0.01 0.01 0.02 0.00 0.01 0.02 0.03 0.04 0.02 0.16 0.18 0.36 0.28 0.21 0.38 0.26 0.08 0.08 0.20 0.12 0.15 0.24 0.07 0.17 0.16 0.05 0.02 0.01 0.00 0.03 0.01 0.00 0.00 0.02 0.02 0.05 0.13 0.20 0.19 0.10 0.02 0.01 0.01 0.01
0.00 0.00 0.00 0.00 0.00 0.00 0.00 0.00 0.00 0.00 0.00 0.00 0.00 0.00 0.00 0.00 0.00 0.00 0.00 0.00 0.01 0.01 0.04 0.01 0.01 0.01 0.01 0.06 0.03 0.03 0.04 0.33 0.24 0.50 0.42 0.34 0.12 0.11 0.12 0.20 0.24 0.14 0.14 0.10 0.11 0.09 0.10 0.07 0.13 0.13 0.02 0.00 0.01 0.04 0.04 0.02 0.00 0.00 0.00 0.00 0.03 0.02 0.02
0.00 0.00 0.00 0.00 0.00 0.00 0.00 0.00 0.00 0.00 0.00 0.00 0.00 0.00 0.00 0.00 0.00 0.00 0.00 0.00 0.03 0.00 0.01 0.04 0.01 0.01 0.01 0.00 0.04 0.05 0.01 0.04 0.17 0.24 0.29 0.15 0.28 0.12 0.33 0.22 0.24 0.27 0.25 0.12 0.29 0.24 0.18 0.17 0.02 0.12 0.10 0.06 0.00 0.01 0.02 0.04 0.04 0.03 0.00 0.00 0.00 0.00 0.01
0.00 0.00 0.00 0.00 0.00 0.00 0.00 0.00 0.00 0.00 0.00 0.00 0.00 0.03 0.10 0.00 0.01 0.00 0.00 0.00 0.04 0.02 0.06 0.02 0.00 0.01 0.01 0.03 0.03 0.09 0.05 0.04 0.13 0.19 0.23 0.33 0.26 0.10 0.15 0.59 0.19 0.35 0.30 0.08 0.11 0.21 0.08 0.11 0.17 0.08 0.03 0.01 0.00 0.00 0.00 0.01 0.01 0.02 0.04 0.03 0.02 0.01 0.02
0.00 0.00 0.00 0.00 0.00 0.00 0.00 0.00 0.01 0.00 0.00 0.00 0.00 0.00 0.02 0.15 0.05 0.02 0.02 0.00 0.01 0.02 0.02 0.04 0.00 0.03 0.10 0.04 0.06 0.11 0.13 0.21 0.01 0.09 0.25 0.22 0.14 0.02 0.10 0.09 0.30 0.19 0.18 0.35 0.22 0.21 0.39 0.27 0.21 0.08 0.06 0.03 0.03 0.03 0.02 0.00 0.01 0.01 0.02 0.02 0.02 0.02 0.02
0.00 0.00 0.00 0.00 0.00 0.00 0.02 0.04 0.04 0.01 0.04 0.00 0.00 0.11 0.07 0.04 0.07 0.19 0.31 0.01 0.06 0.01 0.03 0.03 0.05 0.03 0.20 0.28 0.21 0.07 0.21 0.07 0.12 0.09 0.06 0.09 0.07 0.02 0.02 0.11 0.25 0.38 0.38 0.72 0.55 0.33 0.29 0.22 0.18 0.20 0.10 0.09 0.02 0.01 0.01 0.02 0.02 0.04 0.03 0.02 0.03 0.05 0.05
0.00 0.00 0.00 0.00 0.00 0.02 0.02 0.00 0.03 0.01 0.04 0.02 0.05 0.03 0.02 0.11 0.06 0.02 0.03 0.04 0.19 0.16 0.17 0.12 0.04 0.07 0.08 0.06 0.04 0.01 0.00 0.01 0.01 0.01 0.02 0.02 0.01 0.00 0.01 0.05 0.04 0.09 0.09 0.11 0.11 0.33 0.25 0.30 0.39 0.38 0.30 0.17 0.09 0.04 0.01 0.00 0.00 0.07 0.05 0.07 0.12 0.11 0.18
0.00 0.00 0.00 0.00 0.03 0.01 0.00 0.00 0.00 0.00 0.00 0.00 0.00 0.00 0.05 0.02 0.00 0.02 0.00 0.09 0.21 0.43 0.17 0.15 0.10 0.07 0.08 0.00 0.05 0.06 0.02 0.02 0.02 0.00 0.01 0.02 0.03 0.01 0.00 0.00 0.01 0.03 0.06 0.01 0.02 0.03 0.09 0.16 0.05 0.03 0.07 0.05 0.13 0.07 0.02 0.03 0.07 0.03 0.21 0.39 0.45 0.35 0.44
0.07 0.04 0.00 0.05 0.00 0.00 0.00 0.03 0.00 0.00 0.02 0.00 0.01 0.00 0.22 0.06 0.01 0.01 0.04 0.01 0.14 0.23 0.35 0.26 0.18 0.23 0.01 0.02 0.05 0.03 0.04 0.04 0.06 0.03 0.00 0.00 0.00 0.01 0.02 0.00 0.00 0.00 0.00 0.00 0.00 0.00 0.00 0.00 0.00 0.02 0.00 0.00 0.00 0.03 0.09 0.06 0.38 0.41 0.23 0.44 0.75 0.49 0.42
0.00 0.08 0.02 0.00 0.03 0.04 0.07 0.00 0.00 0.00 0.00 0.00 0.00 0.00 0.21 0.00 0.00 0.00 0.01 0.05 0.09 0.09 0.30 0.43 0.32 0.28 0.35 0.14 0.04 0.03 0.01 0.03 0.05 0.05 0.00 0.00 0.00 0.00 0.00 0.00 0.00 0.01 0.00 0.00 0.00 0.01 0.01 0.00 0.00 0.00 0.00 0.00 0.00 0.00 0.00 0.00 0.00 0.00 0.02 0.05 0.04 0.03 0.04
0.01 0.04 0.00 0.01 0.03 0.05 0.01 0.00 0.00 0.00 0.00 0.00 0.00 0.00 0.07 0.00 0.00 0.00 0.00 0.03 0.09 0.09 0.09 0.13 0.09 0.14 0.11 0.15 0.03 0.04 0.02 0.01 0.03 0.04 0.01 0.00 0.00 0.00 0.00 0.00 0.00 0.00 0.00 0.00 0.00 0.00 0.00 0.00 0.00 0.00 0.00 0.00 0.00 0.00 0.00 0.00 0.00 0.00 0.02 0.02 0.07 0.03 0.00
0.00 0.01 0.07 0.05 0.11 0.13 0.03 0.01 0.00 0.00 0.00 0.00 0.00 0.01 0.04 0.00 0.00 0.00 0.00 0.02 0.15 0.08 0.11 0.08 0.05 0.05 0.11 0.13 0.09 0.01 0.02 0.01 0.01 0.00 0.00 0.00 0.00 0.00 0.01 0.00 0.00 0.00 0.00 0.00 0.00 0.00 0.00 0.00 0.00 0.00 0.00 0.00 0.00 0.00 0.00 0.00 0.00 0.00 0.00 0.01 0.01 0.01 0.01
0.01 0.00 0.00 0.01 0.02 0.02 0.00 0.00 0.00 0.00 0.00 0.00 0.00 0.10 0.06 0.00 0.00 0.00 0.01 0.08 0.13 0.30 0.30 0.11 0.09 0.12 0.07 0.16 0.06 0.01 0.08 0.06 0.06 0.01 0.03 0.01 0.00 0.00 0.00 0.00 0.00 0.00 0.00 0.00 0.00 0.00 0.00 0.01 0.01 0.02 0.02 0.00 0.00 0.00 0.00 0.00 0.00 0.00 0.00 0.01 0.01 0.03 0.01
0.00 0.01 0.02 0.10 0.01 0.00 0.00 0.00 0.00 0.00 0.00 0.01 0.05 0.04 0.01 0.00 0.01 0.00 0.04 0.03 0.12 0.13 0.40 0.16 0.15 0.12 0.21 0.32 0.05 0.01 0.00 0.00 0.00 0.00 0.00 0.00 0.00 0.00 0.00 0.00 0.00 0.00 0.00 0.00 0.00 0.00 0.00 0.00 0.00 0.00 0.00 0.00 0.00 0.00 0.00 0.00 0.00 0.00 0.00 0.01 0.02 0.00 0.03
0.00 0.01 0.02 0.02 0.01 0.00 0.00 0.00 0.00 0.00 0.00 0.00 0.00 0.00 0.00 0.00 0.00 0.00 0.02 0.06 0.13 0.24 0.12 0.17 0.05 0.03 0.03 0.05 0.10 0.08 0.00 0.00 0.00 0.00 0.00 0.00 0.02 0.00 0.00 0.00 0.00 0.00 0.00 0.00 0.00 0.00 0.00 0.00 0.00 0.00 0.00 0.00 0.00 0.00 0.00 0.00 0.00 0.00 0.00 0.00 0.00 0.00 0.00
0.02 0.03 0.03 0.01 0.00 0.00 0.00 0.00 0.00 0.00 0.00 0.00 0.00 0.00 0.00 0.00 0.00 0.01 0.03 0.01 0.18 0.15 0.11 0.15 0.14 0.03 0.02 0.01 0.02 0.05 0.02 0.00 0.00 0.00 0.00 0.00 0.03 0.03 0.13 0.28 0.06 0.06 0.02 0.01 0.01 0.01 0.02 0.00 0.00 0.00 0.00 0.00 0.00 0.00 0.00 0.00 0.00 0.00 0.00 0.00 0.01 0.02 0.02
0.00 0.02 0.00 0.00 0.00 0.00 0.00 0.00 0.00 0.00 0.00 0.00 0.00 0.00 0.00 0.00 0.00 0.00 0.01 0.08 0.18 0.23 0.13 0.09 0.03 0.02 0.07 0.08 0.02 0.00 0.00 0.01 0.00 0.00 0.00 0.00 0.00 0.00 0.01 0.05 0.06 0.15 0.18 0.20 0.24 0.07 0.01 0.00 0.00 0.01 0.00 0.00 0.00 0.00 0.00 0.00 0.00 0.00 0.00 0.00 0.00 0.00 0.01
0.00 0.00 0.00 0.00 0.00 0.00 0.00 0.00 0.00 0.00 0.00 0.00 0.00 0.00 0.00 0.00 0.00 0.00 0.00 0.01 0.01 0.13 0.07 0.02 0.02 0.01 0.05 0.10 0.21 0.08 0.01 0.00 0.00 0.00 0.00 0.00 0.00 0.00 0.00 0.00 0.00 0.02 0.02 0.05 0.14 0.03 0.07 0.04 0.04 0.02 0.03 0.01 0.04 0.02 0.04 0.04 0.02 0.02 0.02 0.00 0.00 0.00 0.00
0.01 0.04 0.00 0.00 0.00 0.00 0.00 0.00 0.00 0.00 0.00 0.00 0.00 0.00 0.00 0.00 0.00 0.00 0.00 0.00 0.04 0.01 0.00 0.02 0.02 0.04 0.03 0.03 0.11 0.13 0.02 0.00 0.00 0.00 0.00 0.00 0.00 0.00 0.00 0.00 0.00 0.00 0.01 0.02 0.02 0.12 0.21 0.10 0.03 0.01 0.01 0.00 0.04 0.07 0.02 0.01 0.00 0.00 0.00 0.03 0.02 0.01 0.00
0.01 0.06 0.02 0.00 0.00 0.00 0.00 0.00 0.00 0.01 0.00 0.00 0.00 0.00 0.00 0.00 0.00 0.00 0.01 0.02 0.02 0.03 0.01 0.01 0.01 0.00 0.00 0.00 0.01 0.00 0.00 0.00 0.00 0.00 0.00 0.00 0.00 0.00 0.00 0.00 0.00 0.00 0.00 0.00 0.01 0.02 0.03 0.02 0.08 0.13 0.11 0.12 0.07 0.05 0.09 0.03 0.04 0.03 0.05 0.01 0.00 0.00 0.01
0.06 0.01 0.01 0.02 0.00 0.00 0.00 0.00 0.00 0.00 0.00 0.00 0.00 0.00 0.00 0.00 0.00 0.00 0.00 0.00 0.03 0.01 0.04 0.01 0.00 0.01 0.01 0.01 0.00 0.00 0.00 0.00 0.00 0.00 0.00 0.00 0.00 0.00 0.00 0.00 0.00 0.00 0.00 0.00 0.00 0.00 0.00 0.01 0.03 0.04 0.04 0.06 0.24 0.05 0.03 0.05 0.14 0.11 0.03 0.02 0.04 0.03 0.00
0.02 0.02 0.03 0.04 0.03 0.11 0.06 0.01 0.01 0.00 0.00 0.00 0.00 0.00 0.00 0.00 0.00 0.00 0.00 0.00 0.01 0.05 0.03 0.01 0.01 0.00 0.00 0.00 0.01 0.01 0.01 0.00 0.00 0.00 0.00 0.00 0.00 0.00 0.00 0.00 0.00 0.00 0.00 0.00 0.00 0.00 0.00 0.00 0.00 0.02 0.05 0.08 0.02 0.04 0.09 0.19 0.12 0.08 0.00 0.02 0.02 0.05 0.01
0.07 0.02 0.00 0.00 0.00 0.00 0.02 0.01 0.01 0.01 0.00 0.00 0.00 0.01 0.00 0.00 0.00 0.00 0.00 0.00 0.00 0.04 0.04 0.00 0.02 0.01 0.01 0.00 0.00 0.00 0.01 0.00 0.00 0.00 0.00 0.00 0.00 0.00 0.00 0.00 0.00 0.00 0.00 0.00 0.00 0.00 0.00 0.00 0.00 0.00 0.01 0.02 0.02 0.03 0.05 0.02 0.03 0.08 0.05 0.01 0.00 0.00 0.01
0.00 0.00 0.01 0.01 0.00 0.00 0.00 0.00 0.00 0.00 0.00 0.00 0.00 0.00 0.01 0.00 0.00 0.00 0.00 0.00 0.00 0.00 0.00 0.00 0.01 0.03 0.02 0.02 0.00 0.00 0.04 0.08 0.01 0.00 0.00 0.00 0.00 0.01 0.01 0.00 0.00 0.00 0.00 0.00 0.00 0.00 0.00 0.00 0.00 0.00 0.00 0.00 0.00 0.00 0.00 0.01 0.02 0.02 0.01 0.02 0.02 0.02 0.00
0.02 0.00 0.00 0.00 0.00 0.00 0.00 0.00 0.00 0.00 0.00 0.00 0.00 0.00 0.00 0.00 0.00 0.00 0.00 0.00 0.00 0.00 0.00 0.00 0.02 0.02 0.04 0.03 0.06 0.00 0.02 0.01 0.01 0.00 0.00 0.00 0.00 0.00 0.00 0.01 0.01 0.01 0.00 0.00 0.00 0.00 0.00 0.00 0.00 0.00 0.00 0.00 0.00 0.00 0.00 0.00 0.00 0.00 0.00 0.01 0.00 0.00 0.00
MSLP
1006.75 1007.51 1006.31 1006.35 1006.03 1012.15 1007.59 1008.95 1011.83 1010.23 1006.63 1007.99 1010.39 1010.19 1009.55 1010.07 1011.39 1012.71 1008.55 1012.59 1012.35 1010.43 1009.71 1009.63 1009.63 1009.59 1009.51 1009.47 1009.95 1010.19 1010.71 1010.87 1011.27 1011.87 1011.47 1011.47 1011.43 1011.47 1011.51 1011.51 1010.67 1010.55 1010.51 1010.75 1010.87 1011.19 1011.47 1011.59 1011.71 1011.87 1012.07 1012.23 1012.71 1013.35 1013.79 1014.23 1014.43 1014.51 1014.75 1014.87 1015.07 1015.19 1015.39
1006.19 1005.67 1005.83 1005.99 1005.75 1005.79 1007.91 1010.43 1008.71 1006.47 1005.75 1006.71 1009.95 1013.55 1011.43 1012.43 1014.27 1012.19 1008.43 1012.79 1014.03 1013.07 1015.91 1010.51 1010.59 1010.79 1010.39 1010.51 1010.39 1010.71 1010.83 1010.39 1011.31 1011.23 1011.15 1010.91 1011.11 1011.35 1011.27 1011.27 1011.15 1010.27 1010.39 1010.75 1010.79 1010.87 1011.07 1011.31 1011.39 1011.63 1011.95 1011.99 1012.39 1012.91 1013.39 1013.95 1014.27 1014.59 1014.59 1014.71 1014.87 1015.03 1015.35
1005.99 1004.79 1006.51 1007.75 1006.23 1005.03 1007.71 1007.71 1004.47 1009.03 1012.47 1013.79 1010.59 1012.15 1015.47 1014.31 1014.39 1012.51 1009.87 1008.99 1013.07 1011.75 1013.83 1011.75 1011.75 1011.23 1011.07 1010.59 1010.23 1010.95 1011.67 1011.19 1010.91 1010.95 1011.15 1011.11 1010.79 1011.03 1011.43 1011.67 1011.75 1011.03 1010.51 1010.75 1010.83 1010.91 1010.83 1011.03 1011.07 1011.27 1011.59 1011.87 1012.23 1012.71 1012.99 1013.35 1013.87 1013.99 1014.23 1014.31 1014.51 1014.75 1014.95
1006.39 1007.11 1008.55 1012.11 1009.79 1006.79 1005.75 1005.31 1007.35 1005.51 1007.55 1010.31 1012.67 1011.71 1011.47 1011.87 1013.95 1013.39 1011.51 1009.67 1014.75 1011.95 1011.47 1010.27 1011.07 1010.35 1010.55 1010.75 1011.15 1011.11 1011.07 1011.19 1010.67 1010.83 1010.79 1011.03 1011.23 1011.23 1011.47 1011.63 1011.67 1011.51 1010.91 1010.75 1010.79 1010.95 1011.07 1011.11 1011.27 1011.39 1011.67 1011.79 1012.31 1012.63 1012.95 1013.15 1013.35 1013.59 1013.87 1014.11 1014.31 1014.75 1014.75
1007.51 1010.91 1009.27 1010.23 1008.79 1010.03 1009.31 1009.51 1009.31 1007.79 1007.87 1004.95 1007.39 1008.27 1010.71 1012.27 1013.51 1013.31 1012.87 1014.71 1015.51 1012.55 1011.23 1009.91 1010.27 1009.87 1010.27 1011.47 1011.59 1011.51 1011.19 1010.91 1010.35 1010.23 1010.47 1010.91 1011.15 1011.15 1011.23 1011.55 1011.75 1011.67 1011.43 1011.23 1010.91 1010.75 1010.91 1010.87 1011.11 1011.35 1011.67 1011.99 1012.15 1012.43 1012.91 1012.99 1013.55 1013.75 1013.87 1013.83 1014.07 1014.43 1014.43
1011.35 1009.35 1007.23 1007.63 1007.47 1007.03 1007.95 1008.67 1009.67 1008.23 1008.63 1010.87 1012.79 1013.03 1007.87 1009.31 1011.87 1013.51 1013.75 1016.51 1015.07 1012.55 1009.71 1010.67 1010.55 1011.11 1012.27 1012.07 1011.23 1011.27 1011.19 1011.31 1010.99 1010.59 1010.07 1010.31 1011.07 1010.91 1011.07 1011.07 1011.39 1011.47 1011.51 1011.35 1011.35 1011.11 1010.95 1011.31 1011.55 1011.79 1011.99 1012.31 1012.55 1012.83 1012.95 1012.91 1013.27 1013.55 1013.71 1013.71 1013.91 1014.19 1014.27
1011.91 1010.07 1008.83 1006.99 1006.15 1005.43 1005.95 1006.87 1008.35 1007.43 1007.31 1008.19 1010.91 1013.67 1010.71 1009.03 1009.39 1008.87 1010.07 1012.23 1016.47 1012.39 1011.47 1010.47 1010.71 1010.79 1010.71 1011.07 1010.91 1011.15 1010.91 1011.31 1011.11 1010.75 1010.27 1009.83 1010.19 1010.47 1010.63 1010.79 1011.03 1011.27 1011.39 1011.47 1011.67 1011.71 1011.59 1011.59 1011.83 1012.07 1012.43 1012.79 1012.83 1012.95 1012.95 1012.99 1013.19 1013.39 1013.35 1013.39 1013.51 1013.79 1014.11
1010.43 1009.35 1008.19 1006.95 1006.27 1006.47 1007.35 1006.51 1006.19 1007.55 1008.95 1007.47 1007.83 1009.07 1008.83 1010.47 1009.39 1010.95 1011.07 1012.67 1014.95 1012.75 1013.07 1013.03 1010.87 1011.59 1010.95 1010.67 1010.87 1011.15 1011.15 1011.23 1010.87 1010.51 1010.87 1010.51 1010.63 1010.59 1010.87 1011.27 1011.11 1011.23 1011.27 1011.47 1011.79 1012.03 1011.99 1011.95 1012.27 1012.63 1012.87 1012.91 1012.91 1013.11 1013.27 1013.19 1013.27 1013.19 1013.31 1013.27 1013.39 1013.71 1013.99
1014.03 1012.59 1010.47 1009.31 1007.15 1006.03 1007.03 1007.55 1006.67 1005.91 1006.35 1006.59 1006.15 1006.39 1006.67 1010.07 1008.63 1008.15 1010.75 1014.39 1016.95 1014.03 1012.47 1012.19 1013.11 1013.51 1012.87 1011.71 1011.51 1011.63 1012.19 1011.63 1010.83 1010.39 1010.59 1010.63 1010.71 1011.07 1011.67 1012.15 1012.11 1011.91 1012.03 1012.23 1012.39 1012.31 1012.23 1012.47 1012.99 1013.03 1013.07 1013.03 1013.07 1013.35 1013.51 1013.63 1013.43 1013.31 1013.31 1013.27 1013.47 1013.71 1013.87
1021.31 1020.15 1018.43 1016.87 1013.63 1011.23 1008.43 1007.59 1007.35 1006.87 1007.43 1007.91 1009.03 1011.39 1010.15 1012.99 1010.39 1010.11 1011.19 1015.75 1013.95 1012.91 1012.35 1013.03 1012.87 1013.47 1013.55 1011.95 1011.83 1012.51 1012.31 1011.83 1011.19 1010.87 1011.11 1011.35 1011.39 1012.11 1012.51 1012.95 1012.71 1012.87 1012.91 1012.87 1013.31 1013.39 1012.83 1012.79 1012.99 1013.07 1013.23 1013.31 1013.31 1013.59 1013.71 1013.51 1013.79 1013.79 1013.87 1013.51 1013.71 1013.79 1013.99
1017.03 1017.35 1015.23 1013.15 1011.99 1011.35 1011.79 1009.43 1008.11 1007.67 1006.79 1007.75 1009.07 1008.79 1011.27 1013.55 1012.59 1010.79 1014.39 1013.23 1013.99 1013.87 1012.59 1012.35 1012.99 1012.59 1013.79 1014.83 1013.59 1013.15 1013.63 1012.95 1012.31 1011.59 1011.83 1011.91 1012.43 1012.51 1012.43 1012.63 1012.71 1012.91 1013.11 1013.23 1013.03 1013.07 1012.99 1012.91 1012.95 1012.99 1013.19 1013.51 1013.75 1013.95 1014.11 1013.75 1013.91 1014.23 1014.43 1014.19 1013.87 1014.03 1014.23
1013.67 1012.99 1013.63 1012.31 1012.23 1012.75 1010.83 1011.03 1011.35 1009.87 1009.83 1009.35 1009.99 1011.47 1011.83 1010.07 1012.27 1013.47 1013.63 1013.35 1014.95 1014.95 1013.07 1012.79 1011.99 1012.31 1012.39 1014.55 1014.35 1013.43 1013.51 1013.99 1013.43 1013.39 1012.79 1012.75 1012.59 1012.39 1012.63 1012.87 1012.99 1013.19 1013.23 1013.11 1013.23 1013.07 1012.83 1012.99 1012.99 1013.11 1013.19 1013.31 1013.67 1013.99 1014.23 1014.27 1014.51 1014.83 1014.63 1014.19 1013.95 1014.11 1014.35
1012.11 1011.71 1011.55 1011.23 1011.71 1011.63 1011.07 1010.91 1010.79 1011.35 1010.67 1010.31 1011.11 1010.95 1009.71 1010.11 1012.99 1013.51 1011.23 1011.63 1014.35 1013.23 1012.59 1011.47 1011.31 1011.47 1011.83 1012.71 1013.55 1013.95 1013.95 1013.59 1013.83 1013.59 1013.55 1013.19 1013.23 1013.39 1013.07 1013.11 1013.23 1013.19 1013.19 1013.23 1013.39 1013.39 1013.19 1013.19 1013.55 1013.63 1013.75 1013.87 1013.91 1014.15 1014.35 1014.55 1014.79 1014.51 1013.71 1013.71 1013.99 1014.19 1014.39
1012.27 1011.35 1011.15 1010.95 1011.95 1011.95 1011.51 1011.11 1010.87 1010.83 1011.03 1010.79 1010.87 1010.79 1009.91 1010.31 1011.31 1010.67 1010.47 1011.47 1013.99 1012.99 1012.03 1011.43 1011.47 1010.79 1011.11 1011.75 1011.91 1012.19 1012.79 1014.15 1014.11 1014.31 1014.63 1014.43 1013.91 1013.83 1013.67 1013.55 1013.39 1013.47 1013.43 1013.39 1013.35 1013.51 1013.51 1013.71 1014.15 1014.67 1014.59 1014.55 1014.55 1014.51 1014.43 1014.19 1014.11 1013.79 1013.63 1013.87 1014.19 1014.35 1014.55
1013.71 1012.23 1011.31 1010.99 1011.35 1012.07 1012.91 1011.83 1011.75 1011.59 1010.95 1011.03 1010.95 1011.03 1011.31 1012.19 1011.87 1010.99 1011.03 1011.79 1014.63 1012.95 1011.67 1011.47 1010.91 1010.75 1011.11 1011.51 1012.51 1012.95 1012.23 1013.07 1014.51 1014.99 1015.47 1015.07 1014.43 1014.43 1014.75 1014.47 1013.99 1013.63 1013.51 1013.51 1013.67 1013.87 1014.07 1014.11 1014.07 1014.39 1014.79 1014.75 1014.67 1014.63 1014.51 1014.43 1014.31 1014.15 1014.23 1014.39 1014.39 1014.55 1014.71
1014.55 1012.39 1012.07 1011.63 1011.51 1012.15 1013.15 1013.43 1012.71 1012.19 1011.87 1012.43 1011.47 1013.31 1013.71 1013.99 1014.43 1013.51 1013.35 1013.27 1016.07 1014.15 1012.47 1011.67 1011.27 1011.55 1011.87 1012.67 1012.79 1013.15 1013.67 1013.55 1014.23 1015.39 1015.59 1015.67 1015.07 1014.63 1014.63 1014.87 1014.55 1014.31 1014.07 1014.03 1014.23 1014.31 1014.23 1014.19 1014.15 1014.19 1014.31 1014.35 1014.47 1014.67 1014.55 1014.55 1014.43 1014.31 1014.51 1014.67 1014.87 1014.95 1014.95
1015.43 1012.75 1011.95 1012.15 1012.31 1013.47 1014.47 1014.03 1013.79 1013.55 1013.07 1011.43 1010.95 1013.11 1014.03 1015.27 1014.87 1014.87 1015.19 1015.87 1014.03 1014.03 1012.63 1012.99 1012.59 1013.07 1014.95 1014.91 1014.95 1014.79 1014.23 1014.27 1013.15 1014.59 1014.95 1014.83 1014.23 1014.27 1014.71 1014.83 1014.99 1014.87 1014.87 1014.87 1014.83 1014.99 1015.11 1014.79 1014.83 1014.67 1014.35 1014.35 1014.39 1014.23 1014.39 1014.31 1014.35 1014.63 1014.83 1014.95 1015.11 1015.31 1015.27
1015.39 1013.55 1012.67 1012.55 1014.63 1018.11 1017.23 1014.67 1012.27 1012.31 1014.35 1013.51 1013.59 1014.55 1014.47 1014.91 1015.55 1014.91 1016.51 1015.35 1014.71 1013.95 1014.35 1014.91 1014.47 1014.79 1015.51 1015.27 1015.19 1014.19 1014.43 1014.87 1014.67 1014.35 1014.43 1014.27 1014.23 1014.27 1014.39 1014.71 1014.87 1015.03 1015.11 1015.15 1015.19 1015.23 1015.23 1015.19 1015.23 1015.15 1014.95 1014.95 1014.71 1014.39 1014.39 1014.35 1014.59 1014.79 1014.91 1014.99 1015.19 1015.43 1015.43
1015.67 1013.75 1013.87 1015.63 1017.59 1017.71 1014.87 1012.11 1011.79 1011.23 1012.23 1012.79 1013.35 1014.47 1014.03 1014.55 1014.51 1014.71 1014.67 1014.99 1014.95 1014.87 1014.39 1014.39 1014.51 1014.79 1014.63 1014.35 1014.87 1014.59 1014.11 1013.95 1013.79 1013.95 1014.39 1014.47 1014.43 1014.63 1014.79 1014.99 1014.99 1015.03 1014.99 1015.03 1015.43 1015.51 1015.35 1015.43 1015.51 1015.63 1015.71 1015.35 1014.95 1014.59 1014.63 1014.99 1015.07 1015.31 1015.43 1015.59 1015.75 1015.75 1015.79
1014.15 1014.79 1015.27 1018.63 1017.83 1015.15 1013.51 1012.07 1011.67 1011.71 1011.55 1011.87 1012.43 1014.71 1015.51 1014.67 1014.67 1014.71 1015.15 1015.15 1014.51 1014.71 1014.87 1014.83 1015.19 1014.91 1015.31 1015.07 1015.39 1015.35 1014.71 1014.15 1014.07 1014.11 1014.67 1014.75 1014.71 1014.91 1014.95 1015.07 1015.15 1015.15 1015.15 1015.27 1015.51 1015.71 1015.63 1015.51 1015.51 1015.43 1015.51 1015.19 1015.07 1014.99 1014.99 1015.27 1015.35 1015.39 1015.51 1015.71 1015.83 1015.95 1015.99
1018.23 1018.27 1015.71 1015.35 1013.87 1014.35 1013.63 1014.31 1014.55 1013.31 1014.59 1014.07 1015.07 1016.43 1016.83 1015.35 1014.83 1014.15 1015.03 1014.63 1014.23 1014.83 1015.19 1015.59 1015.87 1015.83 1015.43 1016.23 1016.87 1016.31 1015.79 1015.11 1014.59 1014.51 1014.63 1014.59 1014.59 1014.51 1014.55 1014.55 1014.75 1014.63 1014.71 1015.03 1015.23 1015.27 1015.31 1015.19 1015.31 1015.39 1015.19 1015.11 1015.19 1015.39 1015.59 1015.71 1015.79 1015.87 1015.79 1016.03 1015.99 1015.95 1016.03
1015.03 1016.75 1019.07 1016.51 1016.43 1017.79 1018.63 1015.39 1013.43 1012.03 1011.95 1012.35 1012.31 1013.87 1017.87 1014.83 1013.91 1013.63 1014.43 1015.47 1015.19 1014.79 1015.27 1015.31 1015.75 1016.35 1017.91 1018.35 1018.19 1016.99 1016.31 1015.71 1015.43 1014.99 1014.83 1014.79 1014.87 1015.07 1015.11 1014.99 1014.95 1014.87 1014.71 1014.63 1014.87 1015.19 1015.43 1015.39 1015.19 1015.11 1015.19 1015.27 1015.55 1015.79 1015.99 1016.07 1016.15 1016.19 1016.11 1016.03 1016.03 1016.03 1016.03
1015.87 1016.19 1018.27 1018.79 1018.43 1018.31 1017.39 1015.95 1014.51 1012.99 1011.79 1012.27 1012.07 1014.55 1017.55 1016.07 1014.47 1013.83 1013.95 1014.39 1015.07 1015.07 1015.11 1015.43 1015.67 1016.63 1018.19 1019.27 1018.99 1018.07 1017.23 1016.35 1015.75 1015.59 1015.31 1015.27 1015.31 1015.31 1015.35 1015.51 1015.63 1015.47 1015.23 1014.91 1014.75 1014.75 1014.99 1015.31 1015.15 1015.23 1015.43 1015.43 1015.51 1015.91 1015.99 1016.15 1016.35 1016.59 1016.59 1016.39 1016.31 1016.31 1016.27
1014.31 1015.79 1017.59 1018.19 1019.51 1019.59 1017.07 1015.15 1014.19 1012.75 1012.39 1012.39 1014.15 1018.19 1018.59 1016.91 1015.11 1014.31 1014.27 1015.27 1016.59 1015.99 1015.59 1015.35 1016.11 1017.55 1018.55 1018.71 1018.51 1017.67 1017.59 1017.19 1016.79 1016.19 1016.35 1016.19 1015.99 1015.91 1015.59 1015.43 1015.47 1015.55 1015.47 1015.59 1015.75 1015.95 1015.95 1015.91 1015.51 1015.51 1015.59 1015.79 1015.99 1016.19 1016.31 1016.27 1016.67 1016.99 1017.03 1016.91 1016.63 1016.47 1016.47
1014.95 1015.07 1015.47 1018.91 1018.71 1016.83 1015.55 1014.91 1013.87 1013.27 1012.91 1014.35 1017.27 1019.95 1018.79 1015.87 1015.35 1014.79 1014.87 1015.75 1016.35 1016.71 1016.87 1016.79 1017.87 1017.91 1017.43 1017.51 1017.43 1017.23 1017.23 1017.27 1017.43 1017.23 1016.91 1016.87 1016.55 1016.55 1016.39 1016.15 1015.91 1016.07 1016.15 1016.15 1016.39 1016.51 1016.63 1016.39 1016.35 1016.47 1016.55 1016.71 1016.91 1016.79 1016.75 1016.87 1017.03 1017.15 1017.07 1016.99 1017.03 1017.03 1016.83
1014.99 1014.39 1015.59 1017.67 1017.47 1016.43 1015.07 1014.03 1013.79 1013.67 1014.55 1017.79 1019.79 1017.55 1015.43 1015.11 1015.07 1014.83 1015.27 1016.23 1016.19 1016.35 1017.19 1017.35 1017.75 1017.91 1017.95 1017.95 1017.63 1017.55 1017.55 1017.47 1017.27 1017.03 1016.99 1016.99 1017.03 1016.75 1016.63 1016.79 1016.71 1016.75 1016.75 1016.79 1016.79 1016.95 1017.11 1017.07 1016.95 1016.91 1017.03 1017.47 1017.63 1017.75 1017.63 1017.55 1017.39 1017.19 1017.23 1017.23 1017.15 1017.15 1017.15
1014.91 1015.83 1016.55 1018.19 1020.59 1017.11 1014.59 1014.71 1014.43 1014.67 1016.79 1017.87 1016.43 1015.59 1015.11 1014.59 1015.07 1015.19 1015.91 1016.19 1016.23 1015.99 1017.23 1017.27 1017.27 1017.47 1017.63 1017.71 1017.87 1017.87 1017.67 1017.67 1017.87 1017.95 1017.99 1017.99 1018.03 1017.95 1017.71 1017.31 1016.95 1017.07 1017.43 1017.47 1017.43 1017.51 1017.59 1017.63 1017.71 1017.63 1017.63 1017.91 1018.07 1018.27 1018.43 1018.03 1017.51 1017.47 1017.51 1017.63 1017.59 1017.55 1017.47
1018.07 1018.75 1019.83 1020.39 1017.79 1016.03 1014.75 1014.99 1017.35 1016.47 1015.91 1015.23 1015.07 1015.15 1015.71 1014.79 1014.95 1015.71 1016.39 1016.63 1016.27 1016.15 1016.51 1017.47 1017.67 1017.35 1017.51 1017.63 1017.71 1017.91 1017.75 1017.79 1018.03 1018.11 1018.19 1018.23 1018.23 1018.31 1018.11 1018.03 1018.03 1017.83 1017.87 1017.75 1017.67 1017.63 1017.67 1017.91 1018.07 1018.07 1018.03 1018.27 1018.31 1018.47 1018.51 1018.07 1017.91 1017.79 1017.75 1017.75 1017.79 1017.87 1017.87
1016.51 1017.67 1017.35 1016.11 1015.07 1015.23 1014.87 1014.99 1015.51 1015.11 1014.51 1014.31 1014.55 1014.79 1015.27 1015.39 1015.31 1014.95 1016.31 1016.83 1016.43 1016.23 1016.31 1016.43 1016.71 1017.47 1017.35 1017.31 1017.23 1017.51 1017.67 1017.79 1017.95 1018.11 1018.07 1018.07 1018.23 1018.35 1018.51 1018.51 1018.39 1018.43 1018.59 1018.67 1018.59 1018.39 1018.11 1017.99 1018.15 1018.23 1018.31 1018.55 1018.67 1018.79 1018.59 1018.23 1018.43 1018.27 1018.15 1018.03 1017.95 1017.99 1018.03
1014.39 1014.71 1014.71 1014.51 1014.71 1014.99 1015.15 1014.87 1014.91 1014.99 1014.91 1014.43 1014.51 1015.11 1015.47 1015.27 1015.19 1015.19 1015.99 1016.19 1016.27 1016.43 1016.15 1016.51 1016.79 1017.15 1017.43 1017.35 1017.39 1017.31 1017.47 1017.67 1017.79 1017.83 1017.91 1017.91 1017.95 1018.03 1018.23 1018.47 1018.51 1018.63 1018.79 1018.95 1018.91 1018.87 1018.67 1018.39 1018.35 1018.27 1018.19 1018.51 1019.07 1019.11 1018.95 1018.75 1018.59 1018.63 1018.43 1018.35 1018.27 1017.99 1017.83
1016.51 1018.75 1015.79 1015.35 1015.59 1014.95 1014.95 1015.43 1015.03 1014.87 1014.87 1015.07 1014.91 1015.31 1015.43 1015.47 1015.19 1015.43 1015.55 1015.79 1016.15 1016.15 1016.11 1016.59 1017.23 1017.31 1017.31 1017.75 1017.91 1017.67 1017.35 1017.71 1017.87 1017.91 1017.99 1017.99 1017.87 1017.99 1018.19 1018.39 1018.43 1018.55 1018.79 1019.15 1019.43 1019.31 1019.27 1019.07 1018.95 1018.75 1018.51 1018.51 1018.95 1019.19 1019.07 1018.95 1018.95 1018.95 1019.03 1018.79 1018.67 1018.31 1017.99
1016.31 1017.87 1016.51 1015.55 1015.07 1015.27 1014.99 1015.47 1015.87 1016.15 1015.79 1015.51 1015.15 1015.11 1015.31 1015.39 1015.35 1015.39 1015.99 1015.87 1016.03 1016.03 1016.47 1016.59 1016.99 1017.19 1017.27 1017.71 1018.07 1017.87 1017.59 1017.63 1017.67 1017.95 1018.11 1018.11 1018.11 1018.07 1018.15 1018.19 1018.15 1018.39 1018.59 1018.99 1019.35 1019.55 1019.63 1019.47 1019.35 1019.31 1019.31 1019.23 1019.27 1019.35 1019.31 1019.35 1019.35 1019.31 1019.27 1019.19 1018.91 1018.59 1018.35
1016.95 1016.67 1016.51 1016.19 1015.47 1015.79 1015.91 1015.87 1015.75 1015.71 1015.87 1015.95 1015.87 1015.51 1015.51 1015.51 1015.71 1015.67 1015.51 1015.91 1016.19 1016.19 1016.63 1016.59 1016.79 1017.11 1017.27 1017.47 1017.47 1017.51 1017.43 1017.55 1017.67 1017.91 1018.03 1018.07 1018.07 1018.23 1018.31 1018.23 1018.19 1018.43 1018.51 1018.79 1019.07 1019.27 1019.51 1019.55 1019.55 1019.59 1019.75 1019.71 1019.55 1019.51 1019.43 1019.39 1019.59 1019.87 1019.75 1019.47 1019.23 1018.87 1018.47
1018.39 1017.99 1017.71 1016.91 1017.95 1018.55 1018.03 1016.55 1016.35 1016.03 1015.87 1015.95 1016.11 1015.91 1015.79 1015.87 1016.03 1015.99 1015.99 1016.11 1016.47 1016.31 1016.39 1016.59 1016.75 1017.07 1017.19 1017.31 1017.55 1017.71 1017.67 1017.59 1017.67 1017.83 1017.99 1018.07 1018.11 1018.15 1018.03 1018.11 1018.15 1018.27 1018.39 1018.67 1018.91 1019.11 1019.35 1019.47 1019.63 1019.71 1019.79 1019.91 1019.95 1019.83 1019.67 1019.51 1019.31 1019.63 1019.59 1019.39 1019.15 1019.39 1019.15
1018.23 1017.55 1017.03 1016.67 1016.83 1017.31 1016.95 1016.51 1016.31 1015.95 1015.79 1016.03 1016.55 1016.55 1016.39 1016.07 1015.95 1015.99 1016.23 1016.43 1016.63 1017.39 1017.19 1016.27 1016.83 1017.23 1017.19 1017.23 1017.27 1017.67 1017.83 1017.75 1017.75 1017.75 1017.95 1018.11 1018.23 1018.19 1018.15 1018.31 1018.43 1018.55 1018.55 1018.59 1018.79 1019.03 1019.19 1019.35 1019.55 1019.71 1019.83 1019.91 1019.91 1019.87 1019.79 1019.63 1019.63 1019.59 1019.59 1019.75 1019.43 1019.31 1019.51
1015.75 1015.59 1016.39 1015.99 1016.03 1016.79 1016.43 1015.91 1015.95 1015.99 1015.83 1015.95 1016.35 1016.31 1016.27 1016.23 1016.23 1016.15 1016.35 1016.43 1016.63 1016.59 1016.39 1016.35 1016.63 1016.83 1016.99 1016.95 1017.07 1017.63 1018.15 1018.07 1017.91 1018.03 1017.99 1018.03 1018.19 1018.39 1018.51 1018.55 1018.83 1018.99 1019.15 1019.19 1019.31 1019.39 1019.31 1019.23 1019.35 1019.43 1019.63 1019.71 1019.75 1019.75 1019.75 1019.75 1019.71 1019.83 1019.99 1020.23 1020.19 1019.91 1019.59
1016.47 1015.43 1015.35 1015.39 1015.47 1015.67 1015.59 1015.51 1015.63 1015.87 1016.03 1015.95 1016.43 1016.55 1016.59 1016.55 1016.43 1016.31 1016.59 1016.67 1016.43 1016.35 1016.55 1016.51 1016.95 1016.91 1016.87 1017.27 1017.23 1017.31 1017.83 1018.31 1018.07 1018.07 1018.19 1018.31 1018.43 1018.55 1018.71 1018.83 1018.91 1019.07 1019.11 1019.11 1019.31 1019.51 1019.55 1019.59 1019.47 1019.35 1019.35 1019.43 1019.51 1019.63 1019.79 1019.83 1019.91 1020.15 1020.35 1020.43 1020.59 1020.55 1020.31
Thickness
5782 5776 5787 5800 5788 5781 5787 5779 5764 5775 5802 5798 5776 5773 5788 5787 5765 5777 5795 5773 5767 5785 5784 5795 5804 5800 5806 5805 5800 5801 5798 5800 5797 5792 5797 5798 5798 5801 5802 5805 5811 5815 5817 5816 5817 5817 5815 5815 5816 5816 5817 5816 5814 5810 5807 5805 5804 5804 5805 5804 5804 5804 5804
5779 5789 5787 5791 5796 5793 5781 5773 5782 5795 5798 5794 5782 5765 5769 5773 5756 5775 5803 5777 5758 5767 5764 5780 5796 5790 5794 5799 5796 5796 5796 5799 5798 5795 5799 5801 5802 5803 5801 5802 5806 5813 5816 5814 5816 5817 5816 5817 5816 5815 5816 5816 5815 5812 5808 5807 5804 5804 5805 5804 5805 5804 5804
5779 5792 5775 5766 5785 5799 5789 5788 5804 5798 5771 5764 5768 5756 5751 5758 5753 5771 5801 5790 5767 5764 5765 5776 5784 5783 5788 5794 5794 5793 5791 5795 5799 5798 5799 5800 5803 5802 5800 5800 5801 5808 5813 5812 5814 5816 5816 5816 5816 5816 5816 5816 5814 5812 5810 5809 5806 5805 5806 5806 5806 5805 5804
5776 5773 5758 5747 5761 5784 5792 5793 5797 5796 5784 5773 5771 5766 5761 5758 5752 5762 5786 5782 5761 5764 5780 5784 5785 5789 5790 5786 5789 5789 5789 5795 5799 5800 5800 5799 5800 5800 5798 5798 5798 5803 5808 5810 5812 5814 5814 5815 5815 5816 5815 5814 5813 5810 5809 5809 5807 5807 5806 5806 5806 5804 5804
5761 5753 5753 5755 5761 5771 5775 5771 5772 5784 5797 5794 5783 5780 5780 5771 5756 5755 5765 5754 5745 5766 5785 5785 5788 5792 5785 5780 5785 5787 5790 5795 5798 5801 5801 5798 5798 5799 5799 5797 5797 5800 5803 5806 5809 5810 5813 5813 5814 5814 5813 5812 5811 5809 5808 5808 5806 5805 5805 5806 5806 5804 5805
5736 5747 5761 5768 5775 5783 5780 5773 5772 5779 5790 5785 5765 5762 5782 5788 5770 5765 5764 5740 5735 5766 5783 5782 5785 5781 5774 5777 5782 5786 5789 5789 5792 5799 5802 5801 5799 5798 5800 5799 5797 5799 5800 5801 5803 5805 5808 5809 5809 5810 5809 5808 5807 5805 5806 5807 5806 5804 5805 5806 5806 5805 5806
5725 5742 5760 5768 5778 5791 5792 5785 5783 5784 5787 5783 5765 5757 5776 5789 5779 5781 5782 5751 5735 5758 5775 5777 5780 5777 5777 5780 5781 5785 5789 5787 5789 5794 5798 5802 5801 5799 5800 5799 5798 5798 5798 5798 5799 5799 5801 5804 5804 5804 5803 5802 5803 5802 5804 5805 5804 5804 5805 5807 5807 5806 5805
5727 5740 5756 5768 5779 5787 5785 5787 5793 5789 5786 5792 5793 5787 5786 5784 5780 5785 5782 5755 5737 5749 5762 5766 5768 5769 5774 5779 5779 5781 5783 5783 5788 5793 5794 5797 5799 5797 5796 5793 5793 5795 5794 5795 5795 5795 5797 5798 5798 5798 5798 5799 5800 5801 5801 5801 5803 5803 5804 5806 5806 5805 5804
5697 5709 5725 5740 5760 5775 5775 5780 5791 5792 5791 5793 5795 5796 5790 5776 5781 5791 5773 5739 5730 5743 5754 5755 5753 5752 5758 5770 5775 5772 5773 5779 5786 5790 5791 5793 5793 5791 5786 5784 5785 5787 5788 5788 5787 5789 5792 5793 5792 5793 5795 5796 5798 5797 5797 5798 5799 5801 5802 5803 5804 5803 5802
5658 5664 5680 5700 5722 5745 5759 5770 5782 5789 5793 5786 5777 5779 5771 5755 5770 5785 5757 5727 5730 5746 5752 5751 5749 5745 5745 5757 5766 5765 5766 5773 5781 5786 5786 5784 5784 5781 5778 5779 5781 5781 5782 5783 5781 5783 5787 5789 5789 5790 5790 5791 5793 5792 5792 5794 5795 5795 5795 5798 5800 5800 5800
5672 5671 5686 5705 5715 5727 5742 5757 5769 5775 5779 5778 5768 5764 5755 5746 5757 5761 5743 5733 5735 5738 5745 5750 5752 5750 5743 5742 5753 5760 5760 5762 5770 5776 5777 5776 5775 5775 5776 5778 5778 5778 5778 5779 5781 5782 5785 5787 5788 5788 5788 5788 5787 5786 5788 5791 5790 5788 5788 5791 5795 5797 5796
5700 5701 5708 5717 5719 5723 5731 5739 5744 5748 5756 5762 5756 5751 5755 5755 5746 5739 5741 5742 5729 5728 5744 5751 5752 5757 5752 5741 5743 5753 5756 5756 5760 5765 5768 5770 5770 5771 5773 5774 5773 5775 5775 5776 5778 5780 5783 5784 5784 5785 5785 5784 5785 5783 5783 5783 5782 5782 5785 5789 5793 5794 5793
5710 5717 5720 5722 5719 5721 5728 5732 5733 5735 5742 5747 5745 5747 5760 5758 5740 5736 5750 5745 5727 5732 5749 5753 5756 5761 5759 5750 5746 5748 5752 5753 5755 5758 5760 5762 5764 5765 5767 5768 5769 5771 5772 5775 5776 5775 5778 5778 5776 5778 5778 5778 5779 5779 5778 5779 5779 5782 5788 5789 5790 5790 5790
5705 5714 5720 5724 5721 5717 5722 5728 5731 5733 5735 5739 5741 5746 5751 5750 5743 5749 5756 5743 5728 5736 5748 5754 5761 5762 5760 5758 5753 5752 5755 5751 5748 5749 5750 5752 5757 5759 5759 5762 5765 5767 5769 5772 5772 5772 5772 5772 5770 5769 5769 5770 5772 5773 5776 5778 5779 5783 5785 5784 5785 5786 5786
5695 5709 5716 5722 5720 5713 5712 5716 5722 5728 5731 5735 5738 5737 5735 5734 5734 5742 5750 5735 5720 5730 5747 5754 5758 5760 5759 5756 5751 5751 5755 5750 5742 5738 5739 5745 5750 5750 5749 5752 5757 5762 5765 5766 5767 5766 5766 5767 5769 5767 5766 5768 5769 5770 5773 5775 5776 5779 5779 5779 5780 5782 5783
5683 5703 5711 5714 5718 5713 5706 5707 5712 5716 5720 5729 5732 5722 5714 5714 5715 5723 5733 5723 5711 5722 5740 5746 5749 5752 5748 5744 5744 5744 5745 5746 5741 5734 5733 5738 5742 5745 5745 5746 5749 5754 5757 5758 5759 5760 5761 5764 5765 5766 5766 5767 5768 5769 5770 5772 5774 5774 5774 5774 5775 5776 5778
5675 5698 5707 5708 5707 5693 5686 5696 5706 5707 5711 5721 5724 5714 5705 5705 5706 5705 5707 5707 5711 5723 5730 5733 5736 5735 5727 5725 5730 5731 5733 5738 5739 5735 5733 5735 5738 5742 5743 5742 5745 5748 5749 5750 5750 5751 5754 5757 5757 5760 5762 5763 5765 5768 5770 5771 5772 5770 5770 5770 5770 5770 5771
5670 5689 5702 5698 5685 5668 5670 5694 5710 5708 5706 5708 5708 5703 5701 5702 5701 5701 5699 5701 5710 5716 5717 5719 5721 5718 5717 5718 5723 5728 5730 5731 5731 5730 5730 5731 5735 5738 5738 5740 5743 5743 5744 5745 5746 5747 5749 5751 5752 5754 5755 5757 5760 5764 5767 5768 5768 5766 5766 5766 5765 5765 5767
5674 5686 5689 5672 5658 5661 5681 5703 5715 5713 5710 5710 5705 5698 5698 5699 5699 5701 5700 5699 5704 5708 5710 5714 5715 5712 5715 5716 5718 5725 5729 5728 5730 5729 5726 5728 5731 5732 5733 5735 5736 5737 5738 5739 5740 5742 5744 5746 5748 5748 5748 5751 5755 5759 5762 5762 5762 5762 5761 5760 5760 5760 5761
5668 5672 5671 5660 5659 5678 5695 5702 5707 5709 5707 5707 5701 5688 5685 5692 5696 5696 5696 5698 5703 5706 5704 5705 5706 5706 5712 5711 5708 5712 5717 5722 5727 5726 5723 5725 5727 5728 5729 5730 5731 5733 5734 5734 5734 5735 5739 5742 5743 5743 5745 5749 5752 5754 5755 5756 5757 5757 5756 5755 5756 5756 5757
5661 5656 5660 5671 5677 5680 5682 5685 5693 5700 5699 5698 5695 5681 5673 5686 5698 5698 5695 5696 5700 5702 5700 5699 5698 5698 5699 5696 5695 5699 5706 5711 5716 5719 5721 5722 5724 5726 5728 5728 5729 5730 5731 5732 5732 5732 5735 5738 5739 5740 5743 5746 5747 5748 5749 5749 5751 5751 5751 5751 5752 5753 5754
5668 5654 5648 5661 5664 5655 5656 5670 5686 5699 5700 5702 5703 5686 5669 5679 5698 5700 5695 5692 5694 5698 5697 5695 5695 5690 5682 5676 5679 5687 5695 5701 5708 5712 5715 5718 5720 5721 5722 5722 5724 5726 5729 5731 5731 5731 5732 5734 5735 5737 5739 5741 5742 5741 5741 5742 5743 5744 5746 5747 5748 5748 5750
5669 5657 5642 5644 5643 5641 5652 5668 5682 5695 5699 5702 5702 5680 5660 5670 5689 5695 5695 5692 5689 5692 5695 5694 5692 5683 5669 5664 5669 5678 5685 5692 5700 5705 5707 5711 5713 5714 5715 5716 5716 5718 5722 5726 5727 5729 5729 5729 5731 5733 5733 5735 5736 5735 5736 5736 5736 5736 5738 5740 5743 5744 5745
5669 5665 5651 5640 5634 5640 5657 5670 5679 5689 5696 5697 5682 5654 5646 5665 5681 5687 5691 5686 5678 5680 5686 5688 5683 5672 5665 5665 5670 5676 5680 5683 5689 5694 5697 5699 5702 5704 5706 5708 5710 5713 5716 5717 5717 5718 5719 5721 5724 5726 5725 5727 5728 5728 5730 5730 5729 5729 5730 5733 5737 5738 5739
5670 5669 5655 5640 5636 5648 5663 5670 5679 5687 5689 5679 5655 5638 5648 5669 5676 5680 5683 5676 5669 5670 5671 5669 5667 5664 5665 5668 5670 5674 5678 5678 5680 5685 5688 5691 5694 5696 5697 5699 5703 5705 5706 5708 5709 5708 5709 5712 5715 5716 5716 5716 5717 5718 5720 5721 5721 5722 5724 5726 5729 5731 5733
5668 5671 5659 5638 5636 5653 5667 5671 5678 5683 5671 5651 5641 5649 5665 5673 5673 5675 5674 5668 5666 5666 5661 5658 5658 5658 5661 5663 5664 5668 5672 5673 5674 5677 5680 5684 5686 5688 5690 5692 5694 5695 5695 5698 5699 5699 5700 5703 5704 5707 5708 5706 5707 5708 5709 5711 5714 5716 5718 5719 5721 5723 5726
5656 5654 5646 5629 5625 5647 5669 5670 5667 5666 5656 5646 5650 5663 5670 5671 5671 5670 5665 5662 5664 5661 5655 5655 5656 5656 5658 5659 5659 5661 5664 5667 5668 5668 5670 5673 5675 5677 5681 5682 5685 5687 5687 5688 5690 5691 5692 5693 5694 5698 5699 5698 5699 5699 5699 5703 5707 5710 5711 5712 5713 5716 5718
5646 5633 5630 5631 5636 5653 5667 5663 5654 5656 5659 5662 5665 5665 5665 5667 5669 5664 5657 5656 5658 5658 5654 5652 5653 5654 5656 5656 5656 5657 5659 5661 5662 5661 5664 5667 5667 5669 5671 5672 5675 5677 5677 5679 5682 5683 5685 5685 5686 5688 5690 5690 5691 5691 5692 5697 5700 5702 5704 5705 5707 5709 5710
5653 5643 5642 5650 5657 5661 5663 5660 5658 5660 5664 5668 5668 5664 5661 5663 5664 5661 5656 5652 5652 5655 5654 5652 5652 5652 5652 5654 5655 5655 5656 5656 5657 5657 5659 5662 5663 5663 5664 5665 5668 5668 5668 5669 5672 5673 5676 5678 5679 5681 5683 5683 5682 5684 5686 5690 5691 5693 5696 5698 5700 5701 5703
5655 5653 5654 5659 5659 5657 5660 5660 5659 5660 5662 5664 5665 5662 5658 5659 5660 5659 5655 5651 5650 5652 5652 5651 5650 5648 5648 5649 5650 5651 5652 5651 5652 5653 5654 5656 5659 5660 5660 5660 5661 5662 5661 5661 5662 5664 5667 5669 5671 5674 5677 5677 5675 5676 5679 5682 5684 5686 5688 5690 5692 5695 5698
5642 5639 5646 5656 5656 5653 5656 5655 5653 5656 5658 5658 5660 5658 5654 5656 5657 5655 5652 5651 5650 5650 5650 5648 5645 5644 5645 5644 5642 5645 5648 5647 5647 5649 5649 5651 5654 5655 5655 5656 5657 5656 5655 5654 5653 5656 5657 5660 5662 5665 5668 5670 5669 5669 5672 5675 5676 5678 5680 5681 5684 5688 5692
5638 5634 5641 5652 5654 5653 5653 5651 5647 5649 5649 5650 5654 5655 5653 5653 5653 5650 5649 5648 5647 5647 5646 5644 5642 5641 5642 5640 5638 5641 5644 5645 5646 5645 5644 5646 5648 5649 5650 5651 5652 5652 5651 5649 5648 5648 5649 5652 5653 5655 5658 5660 5661 5662 5664 5666 5668 5669 5671 5673 5676 5680 5684
5633 5633 5638 5643 5644 5643 5644 5646 5645 5645 5645 5645 5647 5650 5650 5650 5648 5646 5646 5644 5643 5644 5642 5640 5640 5638 5637 5637 5637 5638 5640 5641 5642 5642 5641 5643 5643 5643 5644 5646 5646 5647 5647 5645 5644 5644 5643 5645 5647 5648 5650 5650 5652 5654 5656 5659 5661 5660 5661 5664 5667 5670 5676
5625 5628 5633 5636 5633 5628 5631 5639 5641 5642 5643 5642 5641 5642 5644 5644 5642 5642 5642 5640 5639 5638 5637 5638 5637 5634 5633 5634 5633 5633 5634 5636 5637 5637 5638 5638 5638 5639 5641 5641 5641 5642 5642 5641 5640 5639 5638 5639 5640 5640 5642 5643 5644 5646 5648 5653 5655 5654 5655 5659 5661 5661 5665
5628 5630 5632 5635 5633 5628 5631 5638 5639 5639 5642 5640 5637 5637 5639 5639 5639 5639 5638 5636 5634 5631 5633 5636 5635 5630 5631 5633 5631 5630 5630 5631 5632 5632 5632 5632 5632 5633 5634 5634 5633 5634 5635 5635 5635 5634 5634 5635 5634 5633 5635 5637 5638 5640 5643 5645 5648 5649 5649 5651 5653 5654 5657
5637 5637 5637 5638 5637 5634 5635 5638 5638 5637 5639 5638 5635 5635 5636 5636 5637 5637 5634 5633 5632 5631 5631 5634 5632 5629 5630 5630 5629 5627 5623 5623 5625 5626 5625 5626 5626 5625 5626 5627 5626 5626 5627 5627 5627 5627 5628 5629 5630 5630 5630 5631 5633 5636 5637 5639 5641 5641 5641 5641 5641 5644 5648
5638 5639 5641 5641 5639 5638 5638 5639 5638 5636 5636 5635 5633 5631 5631 5631 5632 5632 5630 5629 5629 5630 5630 5629 5628 5627 5626 5625 5625 5625 5622 5620 5621 5620 5619 5620 5620 5619 5620 5620 5620 5620 5621 5621 5621 5621 5621 5622 5624 5626 5626 5627 5629 5630 5630 5631 5632 5632 5633 5633 5633 5635 5638